Regional Weather Roundup
Issued by NWS

Home | Current Version | Previous Version | Text Only | Print | Product List | Glossary Off
Versions: 1 2 3 4 5 6 7 8 9 10 11 12 13 14 15 16 17 18 19 20 21 22 23 24 25 26 27 28 29 30 31 32 33 34 35 36 37 38 39 40 41 42 43 44 45 46 47 48 49 50

000
ASUS43 KOAX 210102
RWRNE

WEATHER ROUNDUP FOR NEBRASKA
NATIONAL WEATHER SERVICE OMAHA NE
700 PM CST TUE FEB 20 2018

NOTES: SATELLITE DATA IS BEING USED TO AUGMENT CLOUD COVER ABOVE
       12000 FEET.
       "FAIR" INDICATES FEW OR NO CLOUDS BELOW 12,000 FEET WITH NO
       SIGNIFICANT WEATHER AND/OR OBSTRUCTIONS TO VISIBILITY.


NEZ001>004-019>022-054>056-210200-
NEBRASKA PANHANDLE

CITY           SKY/WX    TMP DP  RH WIND       PRES   REMARKS
SCOTTSBLUFF    FAIR       6  -3  66 CALM      30.14R
ALLIANCE       FAIR      -6  -9  86 SE8       30.13R WCI -21
CHADRON        FAIR       1 -10  60 W12       30.20R WCI -16
GORDON         FAIR       0  -9  66 CALM      30.16S
KIMBALL        FAIR       1  -5  74 W5        30.08R WCI  -8
SIDNEY         FAIR      -3 -10  72 NW3       30.14R
$$

NEZ057>060-069>072-079>082-210200-
SOUTHWEST NEBRASKA

CITY           SKY/WX    TMP DP  RH WIND       PRES   REMARKS
NORTH PLATTE   FAIR       3  -5  69 NE7       30.28R WCI  -9
IMPERIAL       FAIR       7  -1  70 N3        30.24R
LEXINGTON      FAIR      13   3  65 N12       30.29R WCI  -1
MCCOOK         FAIR      13   4  67 N9        30.28R WCI   1
OGALLALA       FAIR       7  -3  63 NE3       30.23R
$$

NEZ005>010-023>029-035>040-094-210200-
NORTH CENTRAL NEBRASKA

CITY           SKY/WX    TMP DP  RH WIND       PRES   REMARKS
VALENTINE      FAIR      -3 -10  72 W5        30.27R WCI -13
AINSWORTH      FAIR       6  -1  73 CALM      30.29R
BROKEN BOW     FAIR       4  -3  73 N3        30.28R
O`NEILL        FAIR       4  -2  77 NW10      30.32R WCI -11
ORD            FAIR       8   0  69 N9        30.32R WCI  -5
THEDFORD       FAIR       1  -4  77 CALM      30.27R
$$

NEZ041-046>049-061>064-073>077-083>087-210200-
SOUTH CENTRAL NEBRASKA

CITY           SKY/WX    TMP DP  RH WIND       PRES   REMARKS
GRAND ISLAND   FAIR      13   4  67 N13       30.32R WCI  -2
AURORA         FAIR      13   4  67 N13       30.32R WCI  -1
HASTINGS       FAIR      14   5  67 N12       30.31R WCI   0
HEBRON         FAIR      19   9  65 N12       30.32R WCI   6
HOLDREGE       FAIR      13   5  70 N8        30.29R WCI   1
KEARNEY        FAIR      11   3  70 N10       30.31R WCI  -3
YORK           FAIR      14   7  73 N12       30.32R WCI   0
$$

NEZ011>018-030>034-042>045-210200-
NORTHEAST NEBRASKA

CITY           SKY/WX    TMP DP  RH WIND       PRES   REMARKS
NORFOLK        FAIR      10   3  73 NW13      30.31R WCI  -5
ALBION         FAIR      10   3  74 NW13      30.31S WCI  -5
BLAIR          FAIR      15  10  78 NW12      30.30R WCI   2
COLUMBUS       FAIR      12   6  77 NW10      30.35R WCI  -1
FREMONT        FAIR      15   8  75 N9        30.34R WCI   3
TEKAMAH        FAIR      14   7  73 NW16      30.35R WCI  -2
WAYNE          FAIR      10   4  78 NW13      30.33R WCI  -5
$$

NEZ050>053-065>068-078-088>093-210200-
SOUTHEAST NEBRASKA

CITY           SKY/WX    TMP DP  RH WIND       PRES   REMARKS
LINCOLN        FAIR      17   8  67 N17       30.34R WCI   1
OMAHA EPPLEY   MOCLDY    16   9  74 NW15      30.32R WCI   1
BEATRICE       FAIR      19  12  72 N13       30.31R WCI   7
FALLS CITY     MOCLDY    19  11  70 N12       30.30R WCI   7
NEBRASKA CITY  FAIR      18  13  80 N15       30.30R WCI   4
PLATTSMOUTH    FAIR      17  11  78 NW15      30.30R WCI   2
$$

NEZ044-045-051>053-067-210200-
OMAHA AREA

CITY           SKY/WX    TMP DP  RH WIND       PRES   REMARKS
OMAHA EPPLEY   MOCLDY    16   9  74 NW15      30.32R WCI   1
BLAIR          FAIR      15  10  78 NW12      30.30R WCI   2
FREMONT        FAIR      15   8  75 N9        30.34R WCI   3
MILLARD        FAIR      18  10  70 NW13G22   30.33R WCI   4
OFFUTT AFB     FAIR      17   8  69 NW15      30.31R WCI   2
PLATTSMOUTH    FAIR      17  11  78 NW15      30.30R WCI   2
WAHOO          FAIR      16   9  74 N14       30.34R WCI   1
$$




USA.gov is the U.S. government's official web portal to all federal, state and local government web resources and services.